Location: Albuquerque Trailhead
(34.7934°N, 106.3736°W)
Time: 14:10:08
(UTC+00:00)

Cosmos 1452 Rocket - Pass Details

Date: 20 June 2021
Orbit: 768 x 774 km, 74.1° (Epoch: 26 July)

Event Time Altitude Azimuth Distance (km) Brightness Sun altitude
Rises 03:24:59 0° 200° (SSW) 3,234 6.5 -11.5°
Reaches altitude 10° 03:27:21 10° 202° (SSW) 2,310 5.8 -11.9°
Maximum altitude 03:32:36 74° 287° (WNW) 804 3.7 -12.7°
Drops below altitude 10° 03:37:53 10° 13° (NNE) 2,322 6.4 -13.5°
Sets 03:40:16 0° 16° (NNE) 3,252 7.1 -13.9°
